• Join FlightAware (Why Join?)
  • Login
  • US Flag 
07:02AM EDT


 

Airport Tracker/Info


-or-


 

Live Flight TrackerFlight Track Log ✈ DAL1550 ✈ 26-Apr-2013 ✈ KLAS - KMSP

Flight Track Log - Related Links

Times and Time Zones

All times are in EDT time to prevent confusion due to time zone crossing. See the DAL1550 flight status page for this flight to view local times or setup timezone preferences in your user account.

Time Position Orientation Groundspeed Altitude Reporting Facility
EDT Latitude Longitude Course Direction KTS MPH feet Rate Location/Type
10:27AM 36.0747 -115.1819 94° East 207 238 3,000  Level Los Angeles Center
10:28AM 36.0783 -115.2686 273° West 236 272 5,600 2,100 Climbing Los Angeles Center
10:29AM 36.1833 -115.0565 90° East  Level FlightAware Approximate
10:29AM 36.1258 -115.2914 339° North 243 280 7,300  Level Los Angeles Center
10:30AM 36.1833 -114.9005 90° East  Level FlightAware Approximate
10:31AM 36.1987 -114.7462 94° East  Level FlightAware Approximate
10:31AM 36.1958 -115.1192 63° Northeast 314 361 11,300  Level Los Angeles Center
10:32AM 36.1891 -114.5906 94° East  Level FlightAware Approximate
10:32AM 36.1972 -114.9900 89° East 371 427 12,500  Level Los Angeles Center
10:33AM 36.2000 -114.8508 89° East 400 460 14,600 1,860 Climbing Los Angeles Center
10:34AM 36.1989 -114.6775 90° East 420 483 16,800 1,860 Climbing Los Angeles Center
10:35AM 36.1964 -114.5303 91° East 427 491 18,500 1,560 Climbing Los Angeles Center
10:36AM 36.1944 -114.3786 91° East 437 503 20,100 1,380 Climbing Los Angeles Center
10:37AM 36.2086 -114.2281 83° East 446 513 21,400 1,260 Climbing Los Angeles Center
10:38AM 36.2561 -114.0508 72° East 453 521 22,700 1,020 Climbing Los Angeles Center
10:39AM 36.2969 -113.8997 71° East 461 531 23,800 1,260 Climbing Los Angeles Center
10:40AM 36.3528 -113.7206 69° East 466 536 25,600 1,500 Climbing Los Angeles Center
10:42AM 36.4403 -113.6119 45° Northeast 450 518 26,900 1,200 Climbing Los Angeles Center
10:43AM 36.5394 -113.5083 40° Northeast 442 509 28,100 960 Climbing Los Angeles Center
10:44AM 36.6350 -113.4108 39° Northeast 443 510 29,000 840 Climbing Los Angeles Center
10:45AM 36.7300 -113.3114 40° Northeast 446 513 30,100 840 Climbing Los Angeles Center
10:46AM 36.8436 -113.1947 39° Northeast 441 507 31,000 420 Climbing Los Angeles Center
10:47AM 36.9547 -113.0786 40° Northeast 438 504 31,000  Level Los Angeles Center
10:48AM 37.0483 -112.9811 40° Northeast 439 505 31,000  Level Los Angeles Center
10:49AM 37.1411 -112.8842 40° Northeast 437 503 31,000  Level Los Angeles Center
10:49AM 37.1578 -112.8647 43° Northeast 437 503 31,000  Level Salt Lake Center
10:50AM 37.2678 -112.7494 40° Northeast 433 498 31,000  Level Salt Lake Center
10:51AM 37.3586 -112.6531 40° Northeast 434 499 31,000  Level Salt Lake Center
10:52AM 37.4492 -112.5569 40° Northeast 433 498 31,000  Level Salt Lake Center
10:53AM 37.5392 -112.4611 40° Northeast 431 496 31,000  Level Salt Lake Center
10:54AM 37.6292 -112.3661 40° Northeast 428 493 31,000  Level Salt Lake Center
10:55AM 37.7269 -112.2406 45° Northeast 425 489 31,000  Level Salt Lake Center
10:56AM 37.7950 -112.1200 54° Northeast 423 487 31,000  Level Salt Lake Center
10:57AM 37.8636 -112.0000 54° Northeast 422 486 31,000  Level Salt Lake Center
10:58AM 37.9322 -111.8794 54° Northeast 423 487 31,000  Level Salt Lake Center
11:00AM 38.0011 -111.7592 54° Northeast 423 487 31,000  Level Salt Lake Center
11:01AM 38.0697 -111.6394 54° Northeast 422 486 31,000  Level Salt Lake Center
11:02AM 38.1522 -111.4975 54° Northeast 416 479 31,000  Level Salt Lake Center
11:03AM 38.2178 -111.3764 55° Northeast 416 479 31,000  Level Salt Lake Center
11:04AM 38.2856 -111.2569 54° Northeast 417 480 31,000  Level Salt Lake Center
11:05AM 38.3553 -111.1364 54° Northeast 422 486 31,000  Level Salt Lake Center
11:06AM 38.4214 -111.0150 55° Northeast 420 483 31,000  Level Salt Lake Center
11:07AM 38.4933 -110.8853 55° Northeast 421 484 31,000  Level Salt Lake Center
11:08AM 38.5711 -110.7531 53° Northeast 419 482 31,000  Level Salt Lake Center
11:09AM 38.6464 -110.6164 55° Northeast 420 483 31,000  Level Salt Lake Center
11:10AM 38.7203 -110.4806 55° Northeast 419 482 31,000  Level Salt Lake Center
11:11AM 38.7839 -110.3653 55° Northeast 415 478 31,000  Level Salt Lake Center
11:12AM 38.8139 -110.3064 57° Northeast 414 476 31,000  Level Denver Center
11:13AM 38.8869 -110.1711 55° Northeast 413 475 31,000  Level Denver Center
11:13AM 38.9194 -110.1147 53° Northeast 413 475 31,000  Level Salt Lake Center
11:14AM 38.9936 -109.9800 55° Northeast 413 475 31,000  Level Salt Lake Center
11:15AM 39.0556 -109.8633 56° Northeast 412 474 31,000  Level Salt Lake Center
11:16AM 39.0856 -109.8047 57° Northeast 409 471 31,000  Level Denver Center
11:16AM 39.1281 -109.7286 54° Northeast 411 473 31,000  Level Salt Lake Center
11:17AM 39.1469 -109.6856 60° Northeast 415 478 31,000  Level Denver Center
11:17AM 39.1789 -109.6033 63° Northeast 412 474 31,000  Level Salt Lake Center
11:18AM 39.2342 -109.4531 65° Northeast 416 479 31,000  Level Salt Lake Center
11:19AM 39.2803 -109.3244 65° Northeast 414 476 31,000  Level Salt Lake Center
11:20AM 39.3019 -109.2578 67° East 415 478 31,000  Level Denver Center
11:21AM 39.3492 -109.1292 65° Northeast 416 479 31,000  Level Denver Center
11:22AM 39.4033 -108.9797 65° Northeast 413 475 31,000  Level Denver Center
11:23AM 39.4497 -108.8492 65° Northeast 418 481 31,000  Level Denver Center
11:24AM 39.5031 -108.6997 65° Northeast 418 481 31,000  Level Denver Center
11:25AM 39.5489 -108.5714 65° Northeast 416 479 31,000  Level Denver Center
11:26AM 39.6019 -108.4214 65° Northeast 415 478 31,000  Level Denver Center
11:27AM 39.6569 -108.2672 65° Northeast 421 484 31,000  Level Denver Center
11:28AM 39.7025 -108.1369 66° East 416 479 31,000  Level Denver Center
11:29AM 39.7472 -108.0064 66° East 416 479 31,000  Level Denver Center
11:30AM 39.8000 -107.8531 66° East 418 481 31,000  Level Denver Center
11:31AM 39.8450 -107.7206 66° East 417 480 31,000  Level Denver Center
11:32AM 39.8981 -107.5644 66° East 422 486 31,000  Level Denver Center
11:33AM 39.9442 -107.4289 66° East 427 491 31,000  Level Denver Center
11:34AM 39.9986 -107.2717 66° East 426 490 31,000  Level Denver Center
11:35AM 40.0442 -107.1339 67° East 432 497 31,000  Level Denver Center
11:36AM 40.0961 -106.9747 67° East 427 491 31,000  Level Denver Center
11:37AM 40.1431 -106.8383 66° East 429 494 31,000  Level Denver Center
11:38AM 40.1961 -106.6781 67° East 428 493 31,000  Level Denver Center
11:39AM 40.2467 -106.5297 66° East 430 495 31,000  Level Denver Center
11:40AM 40.2958 -106.3800 67° East 430 495 31,000  Level Denver Center
11:42AM 40.3397 -106.2444 67° East 425 489 31,000  Level Denver Center
11:43AM 40.3842 -106.1033 67° East 427 491 31,000  Level Denver Center
11:44AM 40.4394 -105.9325 67° East 431 496 31,000  Level Denver Center
11:45AM 40.4856 -105.7869 67° East 429 494 31,000  Level Denver Center
11:46AM 40.5308 -105.6436 67° East 423 487 31,000  Level Denver Center
11:47AM 40.5775 -105.4981 67° East 424 488 31,000  Level Denver Center
11:48AM 40.6253 -105.3514 67° East 427 491 31,000  Level Denver Center
11:49AM 40.6708 -105.2036 68° East 431 496 31,000  Level Denver Center
11:50AM 40.7164 -105.0572 68° East 426 490 31,000  Level Denver Center
11:51AM 40.7631 -104.9081 68° East 433 498 31,000  Level Denver Center
11:52AM 40.8158 -104.7353 68° East 432 497 31,000  Level Denver Center
11:53AM 40.8625 -104.5883 67° East 430 495 31,000  Level Denver Center
11:54AM 40.9069 -104.4403 68° East 430 495 31,000  Level Denver Center
11:55AM 40.9519 -104.2922 68° East 430 495 31,000  Level Denver Center
11:56AM 41.0003 -104.1308 68° East 431 496 31,000  Level Denver Center
11:57AM 41.0414 -103.9897 69° East 431 496 31,000  Level Denver Center
11:58AM 41.0917 -103.8250 68° East 433 498 31,000  Level Denver Center
11:59AM 41.1331 -103.6836 69° East 431 496 31,000  Level Denver Center
12:00PM 41.1817 -103.5169 69° East 434 499 31,000  Level Denver Center
12:01PM 41.2239 -103.3744 68° East 435 501 31,000  Level Denver Center
12:02PM 41.2644 -103.2303 69° East 437 503 31,000  Level Denver Center
12:03PM 41.3131 -103.0625 69° East 437 503 31,000  Level Denver Center
12:04PM 41.3550 -102.9183 69° East 437 503 31,000  Level Denver Center
12:05PM 41.4036 -102.7494 69° East 439 505 31,000  Level Denver Center
12:06PM 41.4478 -102.5969 69° East 438 504 31,000  Level Denver Center
12:07PM 41.4944 -102.4264 70° East 438 504 31,000  Level Denver Center
12:08PM 41.5356 -102.2794 69° East 440 506 31,000  Level Denver Center
12:09PM 41.5764 -102.1322 70° East 442 509 31,000  Level Denver Center
12:10PM 41.6244 -101.9606 69° East 443 510 31,000  Level Denver Center
12:12PM 41.6658 -101.8128 69° East 442 509 31,000  Level Denver Center
12:13PM 41.7125 -101.6397 70° East 442 509 31,000  Level Denver Center
12:14PM 41.7539 -101.4906 70° East 444 511 31,000  Level Denver Center
12:15PM 41.7992 -101.3164 71° East 443 510 31,000  Level Denver Center
12:16PM 41.8400 -101.1661 70° East 446 513 31,000  Level Denver Center
12:17PM 41.8869 -100.9911 70° East 446 513 31,000  Level Denver Center
12:18PM 41.9272 -100.8408 70° East 446 513 31,000  Level Denver Center
12:19PM 41.9719 -100.6653 71° East 445 512 31,000  Level Denver Center
12:20PM 42.0125 -100.5133 70° East 449 517 31,000  Level Denver Center
12:21PM 42.0522 -100.3617 71° East 450 518 31,000  Level Denver Center
12:22PM 42.0978 -100.1842 71° East 449 517 31,000  Level Denver Center
12:23PM 42.1358 -100.0336 71° East 447 514 31,000  Level Minneapolis Center
12:24PM 42.1769 -99.8753 71° East 447 514 31,000  Level Minneapolis Center
12:25PM 42.2175 -99.7153 71° East 448 516 31,000  Level Minneapolis Center
12:26PM 42.2647 -99.5200 72° East 451 519 31,000  Level Denver Center
12:27PM 42.3053 -99.3600 71° East 450 518 31,000  Level Denver Center
12:28PM 42.3364 -99.2311 72° East 452 520 31,000  Level Minneapolis Center
12:29PM 42.3767 -99.0683 71° East 454 522 31,000  Level Minneapolis Center
12:30PM 42.4156 -98.9053 72° East 454 522 31,000  Level Minneapolis Center
12:31PM 42.4633 -98.7119 71° East 452 520 31,000  Level Minneapolis Center
12:32PM 42.5372 -98.5772 53° Northeast 448 516 31,000  Level Minneapolis Center
12:33PM 42.6192 -98.4483 49° Northeast 450 518 31,000  Level Minneapolis Center
12:34PM 42.7008 -98.3186 49° Northeast 451 519 31,000  Level Minneapolis Center
12:35PM 42.7878 -98.1817 49° Northeast 447 514 31,000  Level Minneapolis Center
12:36PM 42.8669 -98.0492 51° Northeast 450 518 31,000  Level Minneapolis Center
12:37PM 42.9483 -97.9192 49° Northeast 451 519 31,000  Level Minneapolis Center
12:38PM 43.0286 -97.7908 49° Northeast 448 516 31,000  Level Minneapolis Center
12:39PM 43.1244 -97.6328 50° Northeast 449 517 31,000  Level Minneapolis Center
12:40PM 43.2050 -97.5033 49° Northeast 448 516 31,000  Level Minneapolis Center
12:41PM 43.2844 -97.3736 50° Northeast 447 514 31,000  Level Minneapolis Center
12:42PM 43.3656 -97.2431 49° Northeast 450 518 31,000  Level Minneapolis Center
12:43PM 43.4450 -97.1136 50° Northeast 445 512 31,000  Level Minneapolis Center
12:44PM 43.5253 -96.9836 50° Northeast 447 514 31,000  Level Minneapolis Center
12:45PM 43.6153 -96.8322 51° Northeast 430 495 31,000  Level Minneapolis Center
12:47PM 43.6903 -96.7192 47° Northeast 406 467 31,000 -60 Level Minneapolis Center
12:48PM 43.7947 -96.6644 21° North 400 460 30,900 -540 Descending Minneapolis Center
12:49PM 43.8975 -96.6136 20° North 393 452 29,900 -900 Descending Minneapolis Center
12:50PM 43.9908 -96.5419 29° Northeast 399 459 29,100 -660 Descending Minneapolis Center
12:51PM 44.0419 -96.4067 62° Northeast 403 464 28,600 -660 Descending Minneapolis Center
12:52PM 44.0978 -96.2436 64° Northeast 397 457 27,800 -720 Descending Minneapolis Center
12:53PM 44.1433 -96.1114 64° Northeast 395 455 27,200 -600 Descending Minneapolis Center
12:54PM 44.1892 -95.9783 64° Northeast 391 450 26,600 -600 Descending Minneapolis Center
12:55PM 44.2344 -95.8431 65° Northeast 389 448 26,000 -600 Descending Minneapolis Center
12:56PM 44.2886 -95.6803 65° Northeast 388 447 25,400 -540 Descending Minneapolis Center
12:57PM 44.3325 -95.5447 66° East 386 444 25,000 -480 Descending Minneapolis Center
12:58PM 44.3783 -95.4108 64° Northeast 384 442 24,500 -480 Descending Minneapolis Center
12:59PM 44.4231 -95.2739 65° Northeast 386 444 24,100 -480 Descending Minneapolis Center
01:00PM 44.4706 -95.1233 66° East 419 482 23,500 -720 Descending Minneapolis Center
01:01PM 44.5181 -94.9292 71° East 438 504 22,700 -1,800 Descending Minneapolis Center
01:02PM 44.5539 -94.7694 72° East 435 501 19,900 -2,520 Descending Minneapolis Center
01:03PM 44.5878 -94.6269 71° East 422 486 17,600 -2,280 Descending Minneapolis Center
01:04PM 44.6225 -94.4758 72° East 408 470 15,300 -2,460 Descending Minneapolis Center
01:05PM 44.6625 -94.3033 72° East 389 448 12,600 -2,100 Descending Minneapolis Center
01:06PM 44.6925 -94.1644 73° East 374 430 11,000 -780 Descending Minneapolis Center
01:07PM 44.7225 -94.0250 73° East 374 430 11,000 -300 Level Minneapolis Center
01:08PM 44.7528 -93.8878 73° East 371 427 10,500 -720 Descending Minneapolis Center
01:09PM 44.7800 -93.7675 72° East 324 373 9,600 -720 Descending Minneapolis Center
01:10PM 44.8042 -93.6525 73° East 306 352 9,000 -540 Descending Minneapolis Center
01:11PM 44.8344 -93.5156 73° East 305 351 8,500 -540 Descending Minneapolis Center
01:12PM 44.8583 -93.4061 73° East 291 335 8,000 -300 Descending Minneapolis Center
01:13PM 44.8264 -93.3164 117° Southeast 257 296 8,000  Level Minneapolis Center
01:14PM 44.7908 -93.2281 120° Southeast 255 293 8,000 -300 Level Minneapolis Center
01:15PM 44.7547 -93.1386 120° Southeast 252 290 7,400 -960 Descending Minneapolis Center
01:17PM 44.7211 -93.0575 120° Southeast 241 277 6,000 -1,320 Descending Minneapolis Center
01:18PM 44.7414 -92.9889 67° East 229 264 4,700 -1,260 Descending Minneapolis Center